This is the latest recevied weather packets stored in our database for station/object IN3APK-3. If no packets are shown the sender has not sent any weather packets the latest 10 day(s).
| Time | Temp. | Humidity | Pressure | Rain* | Wind** | Luminosity | Snow |
|---|---|---|---|---|---|---|---|
| 1777146303 | 14.44° C | 31% | 1009.9 hPa | - | - | - | - |
| 1777145651 | 14.44° C | 30% | 1009.6 hPa | - | - | - | - |
| 1777144999 | 15° C | 30% | 1009.5 hPa | - | - | - | - |
| 1777144347 | 15.56° C | 29% | 1009.2 hPa | - | - | - | - |
| 1777143695 | 16.11° C | 29% | 1008.9 hPa | - | - | - | - |
| 1777143043 | 16.67° C | 29% | 1008.7 hPa | - | - | - | - |
| 1777142391 | 17.22° C | 28% | 1008.4 hPa | - | - | - | - |
| 1777141739 | 18.33° C | 28% | 1008.3 hPa | - | - | - | - |
| 1777141088 | 19.44° C | 27% | 1008.1 hPa | - | - | - | - |
| 1777140437 | 21.11° C | 27% | 1007.9 hPa | - | - | - | - |
| 1777139786 | 22.78° C | 26% | 1007.7 hPa | - | - | - | - |
| 1777139135 | 24.44° C | 25% | 1007.5 hPa | - | - | - | - |
| 1777138483 | 25.56° C | 25% | 1007.4 hPa | - | - | - | - |
| 1777137832 | 26.11° C | 24% | 1007.3 hPa | - | - | - | - |
| 1777137181 | 27.78° C | 24% | 1007.2 hPa | - | - | - | - |
| 1777136530 | 28.89° C | 23% | 1007.1 hPa | - | - | - | - |
| 1777135878 | 30° C | 23% | 1007 hPa | - | - | - | - |
| 1777135228 | 31.67° C | 22% | 1006.9 hPa | - | - | - | - |
| 1777134576 | 32.22° C | 22% | 1006.8 hPa | - | - | - | - |
| 1777133925 | 32.22° C | 22% | 1006.8 hPa | - | - | - | - |
| 1777133273 | 33.33° C | 22% | 1006.7 hPa | - | - | - | - |
| 1777132621 | 33.33° C | 21% | 1006.7 hPa | - | - | - | - |
| 1777131969 | 33.33° C | 21% | 1006.6 hPa | - | - | - | - |
| 1777131317 | 33.33° C | 21% | 1006.6 hPa | - | - | - | - |
| 1777130664 | 33.33° C | 20% | 1006.6 hPa | - | - | - | - |
* Rain since midnight (hover to see other rain measurements)
** Current wind speed in m/s (hover to see current wind gust speed)